DW8293 Hedemora SE current weather conditions

sailwx.info

Wind from 244 at 3 knots gusting 17

Air temperature 17.2° C
Dewpoint 3.1° C

Last reported at 2018-Jun-20 15:10 UTC.
Time now 2018-Jun-20 15:36 UTC

Location: N 60°16' E 015°60'.
View on Google Maps.

See reports from other nearby stations

  
Tides and Currents Weather Stations Pressure Air Temp Water Temp Dewpoint Dewpoint Depression Visibility Wind Speed Wind Dir Waves Ship Positions
date/time (UTC)wind fromknots sea level pressurealtimeterstation pressurevisibilityair tempwater tempwave heightnotes
2018-Jun-20 15:10 244 3 gusting 17 17.2
2018-Jun-20 15:01 237 6 gusting 14 17.2
2018-Jun-20 14:52 253 8 gusting 13 17.2
2018-Jun-20 14:43 240 3 gusting 13 17.2
2018-Jun-20 14:34 248 6 gusting 17 17.2
2018-Jun-20 14:25 217 7 gusting 21 17.8
2018-Jun-20 14:16 242 9 gusting 15 17.2
2018-Jun-20 14:07 221 5 gusting 18 17.2
2018-Jun-20 13:58 241 11 gusting 18 17.2
2018-Jun-20 13:49 235 6 gusting 14 17.2
2018-Jun-20 13:40 244 7 gusting 17 17.2
2018-Jun-20 13:31 225 6 gusting 14 17.8
2018-Jun-20 13:22 251 3 gusting 13 17.8
2018-Jun-20 13:13 229 3 gusting 14 17.8
2018-Jun-20 13:04 273 5 gusting 11 18.3
2018-Jun-20 12:55 242 6 gusting 14 18.3
2018-Jun-20 12:46 240 6 gusting 19 18.3
2018-Jun-20 12:37 244 11 gusting 19 18.3
2018-Jun-20 12:28 245 3 gusting 18 18.3
2018-Jun-20 12:19 256 8 gusting 14 18.3
2018-Jun-20 12:10 251 11 gusting 13 18.3
2018-Jun-20 12:01 254 3 gusting 14 18.3
2018-Jun-20 11:52 268 6 gusting 18 18.3
2018-Jun-20 11:43 267 6 gusting 16 18.9
2018-Jun-20 11:34 239 6 gusting 16 18.9
2018-Jun-20 11:25 230 6 gusting 14 18.9
2018-Jun-20 11:16 241 5 gusting 18 18.9
2018-Jun-20 11:07 253 10 gusting 18 18.3
2018-Jun-20 10:58 240 6 gusting 13 18.3
2018-Jun-20 10:49 271 7 gusting 13 18.3
2018-Jun-20 10:40 261 6 gusting 18 18.3
2018-Jun-20 10:31 273 8 gusting 13 18.3
2018-Jun-20 10:22 250 6 gusting 13 18.9
2018-Jun-20 10:13 228 8 gusting 13 18.3
2018-Jun-20 10:04 252 6 gusting 14 17.8
2018-Jun-20 09:55 238 9 gusting 15 17.8
2018-Jun-20 09:46 239 8 gusting 16 17.8
2018-Jun-20 09:37 250 6 gusting 13 17.8
2018-Jun-20 09:28 263 7 gusting 17 17.2
2018-Jun-20 09:19 263 8 gusting 18 17.8
2018-Jun-20 09:10 244 4 gusting 13 17.8
2018-Jun-20 09:01 220 9 gusting 17 17.2
2018-Jun-20 08:52 251 6 gusting 17 16.7
2018-Jun-20 08:43 243 5 gusting 13 16.7
2018-Jun-20 08:34 249 6 gusting 13 16.7
2018-Jun-20 08:25 246 7 gusting 15 16.7
2018-Jun-20 08:16 263 6 gusting 19 16.1
2018-Jun-20 08:07 279 8 gusting 14 16.1
2018-Jun-20 07:58 246 6 gusting 12 16.1
2018-Jun-20 07:49 256 6 gusting 13 16.1
2018-Jun-20 07:40 237 3 gusting 13 16.1
2018-Jun-20 07:31 287 3 gusting 14 15.6
2018-Jun-20 07:22 256 9 gusting 13 15.6
2018-Jun-20 07:13 239 7 gusting 13 15.6
2018-Jun-20 07:04 307 3 gusting 12 15.6
2018-Jun-20 06:55 235 5 gusting 13 15.6
2018-Jun-20 06:46 266 3 gusting 13 15.6
2018-Jun-20 06:37 253 6 gusting 13 15.6
2018-Jun-20 06:28 288 3 gusting 13 15.6
2018-Jun-20 06:19 232 4 gusting 15 15.6
2018-Jun-20 06:10 287 4 gusting 11 15.6
2018-Jun-20 06:01 280 4 gusting 13 15.0
2018-Jun-20 05:52 299 4 gusting 14 15.0
2018-Jun-20 05:43 284 9 gusting 14 15.0
2018-Jun-20 05:34 284 6 gusting 13 14.4
2018-Jun-20 05:25 288 6 gusting 13 15.0
2018-Jun-20 05:16 270 4 gusting 13 14.4
2018-Jun-20 05:07 301 3 gusting 9 14.4
2018-Jun-20 04:58 260 3 gusting 17 14.4
2018-Jun-20 04:49 276 6 gusting 17 14.4
2018-Jun-20 04:40 245 5 gusting 13 14.4
2018-Jun-20 04:31 279 9 gusting 14 13.9
2018-Jun-20 04:22 245 1 gusting 17 13.9
2018-Jun-20 04:13 255 5 gusting 13 13.9
2018-Jun-20 04:04 285 3 gusting 14 13.9
2018-Jun-20 03:55 263 6 gusting 15 13.9
2018-Jun-20 03:46 273 7 gusting 13 13.3
2018-Jun-20 03:37 260 3 gusting 12 13.9
2018-Jun-20 03:28 259 3 gusting 10 13.3
2018-Jun-20 03:19 268 4 gusting 8 13.3
2018-Jun-20 03:10 276 2 gusting 6 13.3
2018-Jun-20 03:01 278 2 gusting 8 13.3
2018-Jun-20 02:52 281 3 gusting 8 13.3
2018-Jun-20 02:43 240 2 gusting 10 13.3
2018-Jun-20 02:34 259 2 gusting 6 13.3
2018-Jun-20 02:25 254 1 gusting 6 13.3
2018-Jun-20 02:16 247 1 gusting 8 13.3
2018-Jun-20 02:07 238 4 gusting 11 13.3
2018-Jun-20 01:58 272 3 gusting 8 12.8
2018-Jun-20 01:49 241 5 gusting 7 12.8
2018-Jun-20 01:40 259 2 gusting 9 13.3
2018-Jun-20 01:31 270 3 gusting 11 13.3
2018-Jun-20 01:22 262 3 gusting 11 13.3
2018-Jun-20 01:13 263 3 gusting 9 13.3
2018-Jun-20 01:04 265 4 gusting 13 13.9
2018-Jun-20 00:55 265 2 gusting 11 13.9
2018-Jun-20 00:46 264 4 gusting 11 13.9
2018-Jun-20 00:37 277 1 gusting 11 13.9
2018-Jun-20 00:28 296 6 gusting 14 14.4
2018-Jun-20 00:19 261 9 gusting 14 14.4
2018-Jun-20 00:10 250 6 gusting 14 14.4
2018-Jun-20 00:01 263 4 gusting 15 14.4
2018-Jun-19 23:52 285 6 gusting 21 14.4
2018-Jun-19 23:43 273 9 gusting 21 14.4
2018-Jun-19 23:34 246 5 gusting 13 14.4
2018-Jun-19 23:25 243 3 gusting 13 15.0
2018-Jun-19 23:16 254 6 gusting 11 15.0
2018-Jun-19 23:07 251 5 gusting 11 15.0
2018-Jun-19 22:58 245 6 gusting 13 15.0
2018-Jun-19 22:49 246 5 gusting 13 15.0
2018-Jun-19 22:40 228 6 gusting 14 15.6
2018-Jun-19 22:31 226 8 gusting 14 15.6
2018-Jun-19 22:22 241 6 gusting 17 15.6
2018-Jun-19 22:13 237 9 gusting 14 15.6
2018-Jun-19 22:04 253 6 gusting 13 15.6
2018-Jun-19 21:55 237 8 gusting 19 15.6
2018-Jun-19 21:46 240 6 gusting 16 15.6
2018-Jun-19 21:37 241 7 gusting 16 16.1
2018-Jun-19 21:28 247 6 gusting 18 16.1
2018-Jun-19 21:19 243 8 gusting 22 16.1
2018-Jun-19 21:10 262 5 gusting 13 16.1
2018-Jun-19 21:01 269 3 gusting 9 16.1
2018-Jun-19 20:52 262 3 gusting 15 16.7
2018-Jun-19 20:43 229 6 gusting 13 16.7
2018-Jun-19 20:34 225 9 gusting 19 17.2
2018-Jun-19 20:25 224 8 gusting 23 17.2
2018-Jun-19 20:16 248 3 gusting 17 17.2
2018-Jun-19 20:07 253 6 gusting 18 17.2
2018-Jun-19 19:58 258 6 gusting 25 17.8
2018-Jun-19 19:49 253 16 gusting 26 17.8
2018-Jun-19 19:40 267 7 gusting 19 18.3
2018-Jun-19 19:31 233 6 gusting 23 18.3
2018-Jun-19 19:22 265 6 gusting 14 18.9
2018-Jun-19 19:13 220 5 gusting 17 18.9
2018-Jun-19 19:04 277 7 gusting 14 19.4
2018-Jun-19 18:55 221 8 gusting 19 19.4
2018-Jun-19 18:46 225 6 gusting 18 19.4
2018-Jun-19 18:37 243 7 gusting 18 20.0
2018-Jun-19 18:28 248 10 gusting 18 20.0
2018-Jun-19 18:19 262 6 gusting 14 20.0
2018-Jun-19 18:10 256 10 gusting 18 20.0
2018-Jun-19 18:01 270 7 gusting 17 20.6
2018-Jun-19 17:52 228 9 gusting 17 20.0
2018-Jun-19 17:43 256 8 gusting 19 20.6
2018-Jun-19 17:34 260 11 gusting 22 20.6
2018-Jun-19 17:25 248 13 gusting 24 20.6
2018-Jun-19 17:16 250 9 gusting 23 21.1
2018-Jun-19 17:07 264 11 gusting 26 20.6
2018-Jun-19 16:58 247 15 gusting 26 21.1
2018-Jun-19 16:49 240 9 gusting 22 21.1
2018-Jun-19 16:40 254 6 gusting 23 21.1
2018-Jun-19 16:31 237 13 gusting 19 21.7
2018-Jun-19 16:22 252 6 gusting 19 21.7
2018-Jun-19 16:13 239 7 gusting 25 21.1
2018-Jun-19 16:04 264 13 gusting 25 21.7
2018-Jun-19 15:55 268 13 gusting 25 21.7
2018-Jun-19 15:46 256 6 gusting 19 21.1
2018-Jun-19 15:37 259 13 gusting 26 21.1
2018-Jun-19 15:28 252 17 gusting 26 21.7
2018-Jun-19 15:19 271 3 gusting 24 21.7
2018-Jun-19 15:10 266 11 gusting 24 21.1
2018-Jun-19 15:01 264 12 gusting 21 21.7
2018-Jun-19 14:52 291 10 gusting 19 21.7
2018-Jun-19 14:43 284 9 gusting 19 21.7
2018-Jun-19 14:34 268 6 gusting 20 21.7
2018-Jun-19 14:25 232 14 gusting 23 20.6
2018-Jun-19 14:16 261 8 gusting 23 21.1
2018-Jun-19 14:07 237 8 gusting 23 20.6
2018-Jun-19 13:58 277 8 gusting 20 20.6
2018-Jun-19 13:49 249 10 gusting 26 21.1
2018-Jun-19 13:40 256 6 gusting 22 21.1
2018-Jun-19 13:31 286 13 gusting 26 21.1
2018-Jun-19 13:22 262 19 gusting 26 20.6
2018-Jun-19 13:13 254 7 gusting 18 20.6
2018-Jun-19 13:04 254 5 gusting 26 20.0
2018-Jun-19 12:55 247 13 gusting 28 20.6
2018-Jun-19 12:46 270 13 gusting 23 20.6
2018-Jun-19 12:37 259 10 gusting 26 20.6
2018-Jun-19 12:28 235 9 gusting 24 20.6
2018-Jun-19 12:19 236 13 gusting 21 20.6
2018-Jun-19 12:10 247 9 gusting 19 20.6
2018-Jun-19 12:01 273 7 gusting 19 20.6
2018-Jun-19 11:52 280 13 gusting 26 20.6
2018-Jun-19 11:43 255 14 gusting 31 20.6
2018-Jun-19 11:34 270 7 gusting 31 20.6
2018-Jun-19 11:25 283 11 gusting 23 19.4
2018-Jun-19 11:16 283 9 gusting 23 20.0
2018-Jun-19 11:07 251 11 gusting 21 20.6
2018-Jun-19 10:58 270 13 gusting 26 20.0
2018-Jun-19 10:49 258 4 gusting 27 20.0
2018-Jun-19 10:40 258 6 gusting 19 20.0
2018-Jun-19 10:31 260 9 gusting 22 19.4
2018-Jun-19 10:22 307 8 gusting 19 19.4
2018-Jun-19 10:13 250 8 gusting 22 18.9
2018-Jun-19 10:04 253 6 gusting 24 18.9
2018-Jun-19 09:55 253 14 gusting 24 18.3
2018-Jun-19 09:46 261 10 gusting 26 18.3
2018-Jun-19 09:37 234 5 gusting 26 18.3
2018-Jun-19 09:28 225 12 gusting 25 18.3
2018-Jun-19 09:19 242 10 gusting 26 17.8
2018-Jun-19 09:10 233 14 gusting 29 17.8
2018-Jun-19 09:01 254 9 gusting 24 17.8
2018-Jun-19 08:52 231 9 gusting 21 17.8
2018-Jun-19 08:43 244 10 gusting 27 17.2
2018-Jun-19 08:34 252 10 gusting 26 17.2
2018-Jun-19 08:25 251 12 gusting 19 17.2
2018-Jun-19 08:16 264 10 gusting 29 16.7
2018-Jun-19 08:07 260 7 gusting 18 17.2
2018-Jun-19 07:58 241 10 gusting 19 16.1
2018-Jun-19 07:49 226 14 gusting 19 16.1
2018-Jun-19 07:40 255 2 gusting 18 15.6
2018-Jun-19 07:31 247 7 gusting 14 15.6
2018-Jun-19 07:22 221 3 gusting 19 15.0
2018-Jun-19 07:13 231 9 gusting 18 15.6
2018-Jun-19 07:04 255 3 gusting 18 15.0
2018-Jun-19 06:55 213 7 gusting 16 14.4
2018-Jun-19 06:46 220 9 gusting 17 13.9
2018-Jun-19 06:37 249 7 gusting 23 13.9
2018-Jun-19 06:28 264 9 gusting 23 13.9
2018-Jun-19 06:19 231 6 gusting 18 13.9
2018-Jun-19 06:10 232 3 gusting 13 13.9
2018-Jun-19 06:01 249 6 gusting 13 13.9
2018-Jun-19 05:52 250 3 gusting 13 13.9
2018-Jun-19 05:43 270 5 gusting 18 13.3
2018-Jun-19 05:34 260 6 gusting 16 13.3
2018-Jun-19 05:25 246 2 gusting 14 13.9
2018-Jun-19 05:16 240 5 gusting 18 13.9
2018-Jun-19 05:07 225 5 gusting 18 13.9
2018-Jun-19 04:58 247 6 gusting 13 13.9
2018-Jun-19 04:49 252 2 gusting 16 13.9
2018-Jun-19 04:40 233 5 gusting 15 13.9
2018-Jun-19 04:31 242 2 gusting 16 13.9
2018-Jun-19 04:22 241 4 gusting 19 13.9
2018-Jun-19 04:13 190 4 gusting 11 13.9
2018-Jun-19 04:04 240 5 gusting 11 13.9
2018-Jun-19 03:55 229 6 gusting 13 13.3
2018-Jun-19 03:46 214 3 gusting 13 13.3
2018-Jun-19 03:37 246 3 gusting 14 13.9
2018-Jun-19 03:28 216 6 gusting 13 13.9
2018-Jun-19 03:19 232 3 gusting 18 13.9
2018-Jun-19 03:10 265 2 gusting 14 13.9
2018-Jun-19 03:01 203 4 gusting 9 13.9
2018-Jun-19 02:52 210 2 gusting 11 13.9
2018-Jun-19 02:43 195 2 gusting 21 13.9
2018-Jun-19 02:34 230 3 gusting 14 13.9
2018-Jun-19 02:25 245 6 gusting 16 13.9
2018-Jun-19 02:16 268 6 gusting 18 13.9
2018-Jun-19 02:07 253 6 gusting 18 14.4
2018-Jun-19 01:58 240 8 gusting 19 14.4
2018-Jun-19 01:49 230 6 gusting 17 14.4
2018-Jun-19 01:40 223 7 gusting 19 14.4
2018-Jun-19 01:31 203 9 gusting 18 14.4
2018-Jun-19 01:22 219 6 gusting 14 15.0
2018-Jun-19 01:13 204 6 gusting 19 15.0
2018-Jun-19 01:04 189 8 gusting 19 15.0
2018-Jun-19 00:55 208 6 gusting 13 15.6
2018-Jun-19 00:46 230 6 gusting 13 15.6
2018-Jun-19 00:37 174 4 gusting 12 15.6
2018-Jun-19 00:28 191 6 gusting 13 15.6
2018-Jun-19 00:19 176 5 gusting 13 15.0
2018-Jun-19 00:10 213 5 gusting 10 15.0
2018-Jun-19 00:01 183 6 gusting 10 15.0
2018-Jun-18 23:52 194 6 gusting 12 15.6
2018-Jun-18 23:43 202 4 gusting 15 15.6
2018-Jun-18 23:34 188 4 gusting 11 15.6
2018-Jun-18 23:25 193 6 gusting 11 15.6
2018-Jun-18 23:16 185 2 gusting 12 15.6
2018-Jun-18 23:07 150 3 gusting 11 15.0
2018-Jun-18 22:58 213 4 gusting 10 15.0
2018-Jun-18 22:49 179 1 gusting 9 15.6
2018-Jun-18 22:40 190 2 gusting 7 15.6
2018-Jun-18 22:31 184 4 gusting 13 15.6
2018-Jun-18 22:22 165 4 gusting 8 15.6
2018-Jun-18 22:13 188 1 gusting 10 15.6
2018-Jun-18 22:04 195 3 gusting 10 15.6
2018-Jun-18 21:55 213 3 gusting 9 15.6
2018-Jun-18 21:46 187 6 gusting 14 15.6
2018-Jun-18 21:37 173 4 gusting 12 15.6
2018-Jun-18 21:28 192 6 gusting 13 15.6
2018-Jun-18 21:19 198 3 gusting 13 15.6
2018-Jun-18 21:10 200 5 gusting 10 15.6
2018-Jun-18 21:01 209 3 gusting 12 15.6
2018-Jun-18 20:52 182 1 gusting 8 15.6
2018-Jun-18 20:43 197 1 gusting 10 15.6
2018-Jun-18 20:34 178 1 gusting 11 15.6
2018-Jun-18 20:25 176 3 gusting 13 15.6
2018-Jun-18 20:16 187 6 gusting 13 15.6
2018-Jun-18 20:07 191 3 gusting 9 15.6
2018-Jun-18 19:58 211 5 gusting 9 15.6
2018-Jun-18 19:49 227 2 gusting 10 15.6
2018-Jun-18 19:40 182 15.6
2018-Jun-18 19:31 200 3 gusting 7 15.6
2018-Jun-18 19:22 227 2 gusting 11 16.1
2018-Jun-18 19:14 255 4 gusting 13 16.1
2018-Jun-18 19:04 203 2 gusting 13 16.1
2018-Jun-18 18:55 216 3 gusting 13 16.1
2018-Jun-18 18:46 228 6 gusting 15 16.1
2018-Jun-18 18:37 228 5 gusting 13 16.7
2018-Jun-18 18:28 221 3 gusting 14 16.7
2018-Jun-18 18:19 230 6 gusting 14 16.7
2018-Jun-18 18:10 247 3 gusting 14 17.2
2018-Jun-18 18:01 251 9 gusting 13 16.7
2018-Jun-18 17:52 250 3 gusting 10 16.7
2018-Jun-18 17:43 250 3 gusting 9 16.7
2018-Jun-18 17:34 224 3 gusting 16 16.7
2018-Jun-18 17:25 227 6 gusting 16 17.2
2018-Jun-18 17:16 264 4 gusting 17 17.2
2018-Jun-18 17:07 256 3 gusting 13 17.2
2018-Jun-18 16:58 254 6 gusting 13 17.2
2018-Jun-18 16:49 244 6 gusting 13 17.2
2018-Jun-18 16:40 243 6 gusting 14 17.8
2018-Jun-18 16:31 240 2 gusting 15 17.8
2018-Jun-18 16:22 259 5 gusting 15 17.8
2018-Jun-18 16:13 262 8 gusting 14 17.8
2018-Jun-18 16:04 235 3 gusting 12 17.8
2018-Jun-18 15:55 240 2 gusting 12 17.8
2018-Jun-18 15:46 235 1 gusting 12 18.3
2018-Jun-18 15:37 240 2 gusting 12 18.3
2018-Jun-18 15:28 246 6 gusting 17 18.3
2018-Jun-18 15:19 275 5 gusting 16 18.9
2018-Jun-18 15:10 200 3 gusting 12 18.9
2018-Jun-18 15:01 224 6 gusting 18 18.9